Stanley, ID

4:26 AM MDT on August 24, 2017 (GMT -0600)
Stanley

Weather History for KSNT - March, 2013

Change the Weather History Date:

Wednesday, March 13, 2013

  Actual Average Record
Temperature  
Mean Temperature 39 °F 26 °F  
Max Temperature 54 °F 41 °F 59 °F (1992)
Min Temperature 24 °F 12 °F -26 °F (1922)
Degree Days  
Heating Degree Days 26 39  
Month to date heating degree days 511 525  
Since 1 July heating degree days 7596 8059  
Cooling Degree Days 0 0  
Month to date cooling degree days 0 0  
Year to date cooling degree days 0 0  
Moisture  
Dew Point 23 °F    
Average Humidity 56    
Maximum Humidity 85    
Minimum Humidity 26    
Precipitation  
Precipitation 0.00 in 0.06 in 0.59 in (1996)
Month to date precipitation 0.46 0.61  
Year to date precipitation 1.70 3.92  
Sea Level Pressure  
Sea Level Pressure 30.22 in    
Wind  
Wind Speed 3 mph (South)    
Max Wind Speed 12 mph    
Max Gust Speed 17 mph    
T = Trace of Precipitation, MM = Missing Value Source: NWS Daily Summary

Daily Weather History Graph

Daily Weather History Graph

Search for Another Location

Airport or City:

Trip Planner

Search our weather history database for the weather conditions in past years. The results will help you decide how hot, cold, wet, or windy it might be!

Date:

Astronomy

Mar. 13, 2013 Rise Set
Actual Time 7:55 AM MDT 7:43 PM MDT
Civil Twilight 7:26 AM MDT 8:12 PM MDT
Nautical Twilight 6:52 AM MDT 8:46 PM MDT
Astronomical Twilight 6:18 AM MDT 9:20 PM MDT
Moon 8:31 AM MDT (3/13) 10:11 PM MDT (3/13)
Length of Visible Light 12h 46m
Length of Day
11h 48m
Waxing Crescent, 4% of the Moon is Illuminated
Mar 13
Waxing Crescent
Mar 19
First Quarter
Mar 27
Full
Apr 2
Last Quarter
Apr 10
New

Hourly Weather History & Observations

Time (MDT) Temp. Windchill Dew Point Humidity Pressure Visibility Wind Dir Wind Speed Gust Speed Precip Events Conditions
12:51 AM 30.0 °F 26.5 °F 23.0 °F 75% 30.21 in - SSW 3.5 mph - N/A   Unknown
1:51 AM 32.0 °F - 25.0 °F 75% 30.20 in - Calm Calm - N/A   Unknown
2:51 AM 28.0 °F 22.8 °F 23.0 °F 81% 30.21 in - South 4.6 mph - N/A   Unknown
3:51 AM 30.0 °F 24.1 °F 23.0 °F 75% 30.19 in - South 5.8 mph - N/A   Unknown
4:51 AM 26.1 °F - 21.0 °F 81% 30.20 in - Calm Calm - N/A   Unknown
5:51 AM 28.0 °F 24.2 °F 21.0 °F 75% 30.20 in - ESE 3.5 mph - N/A   Unknown
6:51 AM 26.1 °F - 21.0 °F 81% 30.24 in - Calm Calm - N/A   Unknown
7:51 AM 26.1 °F - 21.0 °F 81% 30.27 in - Calm Calm - N/A   Unknown
8:51 AM 27.0 °F - 21.9 °F 81% 30.29 in - Calm Calm - N/A   Unknown
9:51 AM 28.9 °F - 24.1 °F 82% 30.28 in - Calm Calm - N/A   Unknown
10:51 AM 32.0 °F - 24.1 °F 73% 30.27 in - Calm Calm - N/A   Unknown
11:51 AM 36.0 °F 32.1 °F 23.0 °F 59% 30.26 in - North 4.6 mph - N/A   Unknown
12:51 PM 37.0 °F - 24.1 °F 59% 30.25 in - Calm Calm - N/A   Unknown
1:51 PM 44.1 °F 42.5 °F 24.1 °F 45% 30.20 in - Variable 3.5 mph - N/A   Unknown
2:51 PM 52.0 °F - 19.9 °F 28% 30.18 in - Variable 5.8 mph - N/A   Unknown
3:51 PM 51.1 °F - 21.9 °F 32% 30.16 in - WSW 6.9 mph - N/A   Unknown
4:51 PM 52.0 °F - 18.0 °F 26% 30.18 in - Calm Calm - N/A   Unknown
5:51 PM 51.1 °F - 19.0 °F 28% 30.17 in - Calm Calm - N/A   Unknown
6:51 PM 51.1 °F - 18.0 °F 27% 30.18 in - West 4.6 mph - N/A   Unknown
7:51 PM 48.9 °F - 23.0 °F 36% 30.20 in - SW 6.9 mph - N/A   Unknown
8:51 PM 45.0 °F 40.1 °F 25.0 °F 46% 30.21 in - South 9.2 mph - N/A   Unknown
9:51 PM 41.0 °F 37.1 °F 27.0 °F 57% 30.22 in - SSE 5.8 mph - N/A   Unknown
10:51 PM 37.0 °F 32.4 °F 27.0 °F 67% 30.24 in - SSE 5.8 mph - N/A   Unknown
11:51 PM 36.0 °F 32.1 °F 26.1 °F 67% 30.24 in - South 4.6 mph - N/A   Unknown